Regional Weather Roundup
Issued by NWS Northern Indiana

Home | Current Version | Previous Version | Graphics & Text | Print | Product List | Glossary On
Versions: 1 2 3 4 5 6 7 8 9 10 11 12 13 14 15 16 17 18 19 20 21 22 23 24 25 26 27 28 29 30 31 32 33 34 35 36 37 38 39 40 41 42 43 44 45 46 47 48 49 50
000
ASUS43 KIWX 051410
RWRIWX

KIWX WEATHER ROUNDUP
NATIONAL WEATHER SERVICE NORTHERN INDIANA
900 AM EST THU MAR 05 2015

NOTE: "FAIR" INDICATES FEW OR NO CLOUDS BELOW 12,000 FEET WITH NO
SIGNIFICANT WEATHER AND/OR OBSTRUCTIONS TO VISIBILITY.

* THESE STATIONS ARE NOT UNDER NWS QUALITY CONTROL. THEY ALSO MAY NOT
  REPORT WEATHER SUCH AS PRECIPITATION OR FOG.

INZ001>027-051500-
NORTHERN INDIANA

CITY           SKY/WX    TMP DP  RH WIND       PRES   REMARKS
GARY*          PTSUNNY   12  -6  44 W12       30.43R WCI  -2
VALPARAISO     PTSUNNY   11   2  67 W7        30.40R WCI   0
MICHIGAN CITY* CLOUDY    18   3  53 W5        30.41R WCI  11
LAPORTE*       LGT SNOW  15  11  85 CALM      30.39S VSB 1
KNOX*            N/A     12  -2  52 CALM      30.40R
SOUTH BEND     PTSUNNY   14   4  64 CALM      30.39R
ELKHART*       PTSUNNY   10   1  67 CALM      30.40R
GOSHEN         PTSUNNY    7   3  84 CALM      30.38R
MONTICELLO*    PTSUNNY    8   2  76 NW6       30.40R WCI  -2
LOGANSPORT*    CLOUDY    14   5  67 N5        30.41R WCI   6
ROCHESTER*     CLOUDY    18   7  62 CALM      30.39R
WARSAW*        CLOUDY    14   3  62 CALM      30.38R
ANGOLA*        SUNNY      9  -2  61 CALM      30.35R
FORT WAYNE     CLOUDY    14   2  58 N6        30.38R WCI   5
HUNTINGTON*    PTSUNNY   14  -4  44 N5        30.38R WCI   6
PERU/GRISSOM   PTSUNNY   14   5  66 NE8       30.37R WCI   3
MARION*        PTSUNNY   15   2  58 NE8       30.38R WCI   3

$$
INZ028>050-051500-
CENTRAL INDIANA

CITY           SKY/WX    TMP DP  RH WIND       PRES   REMARKS
LAFAYETTE      PTSUNNY    9   0  67 NW7       30.43R WCI  -2
KOKOMO*        PTSUNNY   16   7  67 NE6       30.38R WCI   7
MUNCIE*        PTSUNNY   16   5  62 NE8       30.35R WCI   5
INDIANAPOLIS   CLOUDY    17   5  59 N8        30.37R WCI   7

$$
MIZ043>046-050>051-056>058-064>065-071>073-077>080-051500-
SOUTHWEST LOWER MICHIGAN

CITY           SKY/WX    TMP DP  RH WIND       PRES   REMARKS
BATTLE CREEK   PTSUNNY    8  -1  66 NE7       30.38R WCI  -3
BENTON HARBOR  PTSUNNY    9   4  80 E5        30.41R WCI   1
COLDWATER*     PTSUNNY    7  -2  67 NE5       30.36R WCI  -2
HILLSDALE*     MOSUNNY    8  -1  66 NE5       30.32F WCI   0
HOLLAND        PTSUNNY    7  -2  66 E7        30.42R WCI  -5
GRAND RAPIDS   MOSUNNY    5  -4  66 E6        30.40R WCI  -6
KALAMAZOO      PTSUNNY    8  -1  66 NE3       30.39R
STURGIS*       PTSUNNY    7   0  72 CALM      30.37R
THREE RIVERS*  FAIR       6  -1  74 CALM      30.39R

$$
OHZ001>008-015>018-024>025-051500-
NORTHWEST OHIO

CITY           SKY/WX    TMP DP  RH WIND       PRES   REMARKS
WAUSEON*       FAIR      10   0  61 N9        30.35F WCI  -2
DEFIANCE       PTSUNNY   14   1  56 N9        30.38R WCI   2
FINDLAY        PTSUNNY   16   4  59 N8        30.33S WCI   5
TOLEDO EXPRESS MOSUNNY   12   2  64 N7        30.35F WCI   1
TOLEDO METCALF PTSUNNY   13   2  61 NE7       30.37S WCI   3
LIMA           PTSUNNY   15   3  59 N8        30.32F WCI   4

$$
AND FOR LAKE MICHIGAN COASTAL AND OPEN LAKE BUOY OBSERVATIONS

STATION/POSITION TEMP    WIND        PRES    VSBY  WAVE
                 AIR SEA DIR/SP/G                  HT/PER
                 (F)     (DEG/KT/KT) (MB)    (MI)  (FT/S)
CALUMET HARBOR    11     290/ 10/ 13 1028.9R
MICHIGAN CITY     15     270/  9/ 10   N/A
SAINT JOSEPH      13      CALM  /  5 1029.5S

$$
&&


USA.gov is the U.S. government's official web portal to all federal, state and local government web resources and services.